User: anonymous   Login
Location: Iesi
(43.5167°N, 13.2333°E)
Time: 07:22:42
(UTC+00:00)
Language:

Cosmos 841 Rocket - Orbit

View from above orbital plane
View from above orbital plane
View from above satellite
View from above satellite

Ground track
Ground track

The orbit data is extracted from the following two-line orbital elements,

1  9023U 76069B   20296.23170778  .00000021  00000-0  15323-4 0  9997
2  9023  74.0450 359.3197 0018373 225.7365 134.2283 14.39662449320821
Epoch (UTC): 22 October 2020 05:33:39
Eccentricity: 0.0018373
inclination: 74.0450°
perigee height: 746 km
apogee height: 773 km
right ascension of ascending node: 359.3197°
argument of perigee: 225.7365°
revolutions per day: 14.39662449
mean anomaly at epoch: 134.2283°
orbit number at epoch: 32082

The dashed part of the orbit path shows where the satellite is in the earth's shadow,  

DLR